Year,Month,Day,Hour,Minute,Value (Times are PST for temperature in C)
2015,07,28,00,00,17.80
2015,07,28,00,01,17.90
2015,07,28,00,02,17.90
2015,07,28,00,03,17.90
2015,07,28,00,04,17.90
2015,07,28,00,05,17.90
2015,07,28,00,06,17.90
2015,07,28,00,07,17.90
2015,07,28,00,08,17.90
2015,07,28,00,09,17.90
2015,07,28,00,10,17.90
2015,07,28,00,11,17.90
2015,07,28,00,12,17.90
2015,07,28,00,13,17.90
2015,07,28,00,14,17.90
2015,07,28,00,15,17.80
2015,07,28,00,16,17.80
2015,07,28,00,17,17.80
2015,07,28,00,18,17.80
2015,07,28,00,19,17.80
2015,07,28,00,20,17.80
2015,07,28,00,21,17.80
2015,07,28,00,22,17.80
2015,07,28,00,23,17.80
2015,07,28,00,24,17.80
2015,07,28,00,25,17.80
2015,07,28,00,26,17.80
2015,07,28,00,27,17.80
2015,07,28,00,28,17.80
2015,07,28,00,29,17.80
2015,07,28,00,30,17.80
2015,07,28,00,31,17.80
2015,07,28,00,32,17.80
2015,07,28,00,33,17.80
2015,07,28,00,34,17.80
2015,07,28,00,35,17.80
2015,07,28,00,36,17.80
2015,07,28,00,37,17.80
2015,07,28,00,38,17.80
2015,07,28,00,39,17.80
2015,07,28,00,40,17.70
2015,07,28,00,41,17.70
2015,07,28,00,42,17.70
2015,07,28,00,43,17.70
2015,07,28,00,44,17.60
2015,07,28,00,45,17.60
2015,07,28,00,46,17.50
2015,07,28,00,47,17.50
2015,07,28,00,48,17.40
2015,07,28,00,49,17.30
2015,07,28,00,50,17.30
2015,07,28,00,51,17.20
2015,07,28,00,52,17.20
2015,07,28,00,53,17.20
2015,07,28,00,54,17.10
2015,07,28,00,55,17.10
2015,07,28,00,56,17.10
2015,07,28,00,57,17.10
2015,07,28,00,58,17.00
2015,07,28,00,59,17.00
2015,07,28,01,00,17.00
2015,07,28,01,01,17.00
2015,07,28,01,02,17.00
2015,07,28,01,03,16.90
2015,07,28,01,04,16.90
2015,07,28,01,05,16.90
2015,07,28,01,06,16.90
2015,07,28,01,07,16.90
2015,07,28,01,08,16.90
2015,07,28,01,09,16.90
2015,07,28,01,10,16.90
2015,07,28,01,11,16.90
2015,07,28,01,12,16.90
2015,07,28,01,13,16.90
2015,07,28,01,14,16.90
2015,07,28,01,15,16.90
2015,07,28,01,16,17.00
2015,07,28,01,17,17.00
2015,07,28,01,18,17.00
2015,07,28,01,19,17.00
2015,07,28,01,20,17.00
2015,07,28,01,21,17.10
2015,07,28,01,22,17.10
2015,07,28,01,23,17.10
2015,07,28,01,24,17.10
2015,07,28,01,25,17.10
2015,07,28,01,26,17.10
2015,07,28,01,27,17.10
2015,07,28,01,28,17.10
2015,07,28,01,29,17.10
2015,07,28,01,30,17.00
2015,07,28,01,31,17.00
2015,07,28,01,32,17.00
2015,07,28,01,33,17.00
2015,07,28,01,34,16.90
2015,07,28,01,35,16.90
2015,07,28,01,36,16.90
2015,07,28,01,37,16.90
2015,07,28,01,38,16.90
2015,07,28,01,39,16.80
2015,07,28,01,40,16.80
2015,07,28,01,41,16.80
2015,07,28,01,42,16.80
2015,07,28,01,43,16.70
2015,07,28,01,44,16.70
2015,07,28,01,45,16.70
2015,07,28,01,46,16.60
2015,07,28,01,47,16.60
2015,07,28,01,48,16.60
2015,07,28,01,49,16.60
2015,07,28,01,50,16.60
2015,07,28,01,51,16.60
2015,07,28,01,52,16.60
2015,07,28,01,53,16.60
2015,07,28,01,54,16.60
2015,07,28,01,55,16.60
2015,07,28,01,56,16.50
2015,07,28,01,57,16.50
2015,07,28,01,58,16.50
2015,07,28,01,59,16.50
2015,07,28,02,00,16.50
2015,07,28,02,01,16.50
2015,07,28,02,02,16.50
2015,07,28,02,03,16.50
2015,07,28,02,04,16.50
2015,07,28,02,05,16.50
2015,07,28,02,06,16.50
2015,07,28,02,07,16.50
2015,07,28,02,08,16.40
2015,07,28,02,09,16.40
2015,07,28,02,10,16.40
2015,07,28,02,11,16.30
2015,07,28,02,12,16.30
2015,07,28,02,13,16.20
2015,07,28,02,14,16.20
2015,07,28,02,15,16.10
2015,07,28,02,16,16.00
2015,07,28,02,17,16.00
2015,07,28,02,18,15.90
2015,07,28,02,19,15.90
2015,07,28,02,20,15.80
2015,07,28,02,21,15.80
2015,07,28,02,22,15.70
2015,07,28,02,23,15.70
2015,07,28,02,24,15.70
2015,07,28,02,25,15.60
2015,07,28,02,26,15.60
2015,07,28,02,27,15.50
2015,07,28,02,28,15.50
2015,07,28,02,29,15.40
2015,07,28,02,30,15.40
2015,07,28,02,31,15.40
2015,07,28,02,32,15.30
2015,07,28,02,33,15.30
2015,07,28,02,34,15.40
2015,07,28,02,35,15.40
2015,07,28,02,36,15.50
2015,07,28,02,37,15.60
2015,07,28,02,38,15.60
2015,07,28,02,39,15.60
2015,07,28,02,40,15.70
2015,07,28,02,41,15.70
2015,07,28,02,42,15.70
2015,07,28,02,43,15.70
2015,07,28,02,44,15.70
2015,07,28,02,45,15.70
2015,07,28,02,46,15.70
2015,07,28,02,47,15.70
2015,07,28,02,48,15.70
2015,07,28,02,49,15.70
2015,07,28,02,50,15.70
2015,07,28,02,51,15.70
2015,07,28,02,52,15.70
2015,07,28,02,53,15.70
2015,07,28,02,54,15.70
2015,07,28,02,55,15.70
2015,07,28,02,56,15.70
2015,07,28,02,57,15.70
2015,07,28,02,58,15.80
2015,07,28,02,59,15.80
2015,07,28,03,00,15.80
2015,07,28,03,01,15.80
2015,07,28,03,02,15.80
2015,07,28,03,03,15.70
2015,07,28,03,04,15.70
2015,07,28,03,05,15.70
2015,07,28,03,06,15.70
2015,07,28,03,07,15.60
2015,07,28,03,08,15.60
2015,07,28,03,09,15.60
2015,07,28,03,10,15.60
2015,07,28,03,11,15.60
2015,07,28,03,12,15.60
2015,07,28,03,13,15.60
2015,07,28,03,14,15.70
2015,07,28,03,15,15.70
2015,07,28,03,16,15.70
2015,07,28,03,17,15.80
2015,07,28,03,18,15.80
2015,07,28,03,19,15.80
2015,07,28,03,20,15.80
2015,07,28,03,21,15.80
2015,07,28,03,22,15.80
2015,07,28,03,23,15.80
2015,07,28,03,24,15.80
2015,07,28,03,25,15.80
2015,07,28,03,26,15.80
2015,07,28,03,27,15.80
2015,07,28,03,28,15.70
2015,07,28,03,29,15.70
2015,07,28,03,30,15.70
2015,07,28,03,31,15.60
2015,07,28,03,32,15.60
2015,07,28,03,33,15.50
2015,07,28,03,34,15.50
2015,07,28,03,35,15.40
2015,07,28,03,36,15.40
2015,07,28,03,37,15.40
2015,07,28,03,38,15.40
2015,07,28,03,39,15.40
2015,07,28,03,40,15.40
2015,07,28,03,41,15.40
2015,07,28,03,42,15.40
2015,07,28,03,43,15.40
2015,07,28,03,44,15.40
2015,07,28,03,45,15.40
2015,07,28,03,46,15.40
2015,07,28,03,47,15.40
2015,07,28,03,48,15.40
2015,07,28,03,49,15.40
2015,07,28,03,50,15.40
2015,07,28,03,51,15.40
2015,07,28,03,52,15.40
2015,07,28,03,53,15.40
2015,07,28,03,54,15.40
2015,07,28,03,55,15.40
2015,07,28,03,56,15.30
2015,07,28,03,57,15.30
2015,07,28,03,58,15.30
2015,07,28,03,59,15.30
2015,07,28,04,00,15.30
2015,07,28,04,01,15.20
2015,07,28,04,02,15.20
2015,07,28,04,03,15.20
2015,07,28,04,04,15.20
2015,07,28,04,05,15.10
2015,07,28,04,06,15.10
2015,07,28,04,07,15.10
2015,07,28,04,08,15.10
2015,07,28,04,09,15.10
2015,07,28,04,10,15.10
2015,07,28,04,11,15.10
2015,07,28,04,12,15.10
2015,07,28,04,13,15.00
2015,07,28,04,14,15.00
2015,07,28,04,15,15.00
2015,07,28,04,16,14.90
2015,07,28,04,17,14.90
2015,07,28,04,18,14.80
2015,07,28,04,19,14.80
2015,07,28,04,20,14.80
2015,07,28,04,21,14.80
2015,07,28,04,22,14.80
2015,07,28,04,23,14.80
2015,07,28,04,24,14.80
2015,07,28,04,25,14.80
2015,07,28,04,26,14.80
2015,07,28,04,27,14.80
2015,07,28,04,28,14.80
2015,07,28,04,29,14.80
2015,07,28,04,30,14.80
2015,07,28,04,31,14.90
2015,07,28,04,32,14.90
2015,07,28,04,33,14.90
2015,07,28,04,34,14.90
2015,07,28,04,35,14.90
2015,07,28,04,36,14.90
2015,07,28,04,37,14.90
2015,07,28,04,38,15.00
2015,07,28,04,39,15.00
2015,07,28,04,40,15.00
2015,07,28,04,41,15.00
2015,07,28,04,42,15.00
2015,07,28,04,43,15.10
2015,07,28,04,44,15.10
2015,07,28,04,45,15.10
2015,07,28,04,46,15.20
2015,07,28,04,47,15.20
2015,07,28,04,48,15.30
2015,07,28,04,49,15.30
2015,07,28,04,50,15.40
2015,07,28,04,51,15.40
2015,07,28,04,52,15.40
2015,07,28,04,53,15.40
2015,07,28,04,54,15.40
2015,07,28,04,55,15.40
2015,07,28,04,56,15.40
2015,07,28,04,57,15.30
2015,07,28,04,58,15.30
2015,07,28,04,59,15.30
2015,07,28,05,00,15.30
2015,07,28,05,01,15.20
2015,07,28,05,02,15.20
2015,07,28,05,03,15.20
2015,07,28,05,04,15.20
2015,07,28,05,05,15.20
2015,07,28,05,06,15.10
2015,07,28,05,07,15.10
2015,07,28,05,08,15.10
2015,07,28,05,09,15.10
2015,07,28,05,10,15.10
2015,07,28,05,11,15.10
2015,07,28,05,12,15.00
2015,07,28,05,13,15.00
2015,07,28,05,14,14.90
2015,07,28,05,15,14.90
2015,07,28,05,16,14.80
2015,07,28,05,17,14.80
2015,07,28,05,18,14.80
2015,07,28,05,19,14.70
2015,07,28,05,20,14.70
2015,07,28,05,21,14.60
2015,07,28,05,22,14.60
2015,07,28,05,23,14.60
2015,07,28,05,24,14.50
2015,07,28,05,25,14.50
2015,07,28,05,26,14.40
2015,07,28,05,27,14.40
2015,07,28,05,28,14.30
2015,07,28,05,29,14.30
2015,07,28,05,30,14.30
2015,07,28,05,31,14.20
2015,07,28,05,32,14.20
2015,07,28,05,33,14.20
2015,07,28,05,34,14.20
2015,07,28,05,35,14.10
2015,07,28,05,36,14.10
2015,07,28,05,37,14.10
2015,07,28,05,38,14.10
2015,07,28,05,39,14.00
2015,07,28,05,40,14.00
2015,07,28,05,41,14.00
2015,07,28,05,42,14.00
2015,07,28,05,43,13.90
2015,07,28,05,44,13.90
2015,07,28,05,45,13.90
2015,07,28,05,46,13.90
2015,07,28,05,47,13.90
2015,07,28,05,48,13.90
2015,07,28,05,49,14.00
2015,07,28,05,50,14.00
2015,07,28,05,51,14.00
2015,07,28,05,52,14.00
2015,07,28,05,53,14.00
2015,07,28,05,54,14.00
2015,07,28,05,55,14.00
2015,07,28,05,56,14.00
2015,07,28,05,57,14.00
2015,07,28,05,58,14.00
2015,07,28,05,59,14.00
2015,07,28,06,00,13.90
2015,07,28,06,01,13.90
2015,07,28,06,02,13.90
2015,07,28,06,03,13.90
2015,07,28,06,04,13.90
2015,07,28,06,05,13.90
2015,07,28,06,06,13.90
2015,07,28,06,07,13.90
2015,07,28,06,08,13.90
2015,07,28,06,09,13.90
2015,07,28,06,10,14.00
2015,07,28,06,11,14.00
2015,07,28,06,12,14.00
2015,07,28,06,13,14.00
2015,07,28,06,14,14.10
2015,07,28,06,15,14.10
2015,07,28,06,16,14.10
2015,07,28,06,17,14.10
2015,07,28,06,18,14.10
2015,07,28,06,19,14.10
2015,07,28,06,20,14.10
2015,07,28,06,21,14.10
2015,07,28,06,22,14.10
2015,07,28,06,23,14.10
2015,07,28,06,24,14.10
2015,07,28,06,25,14.10
2015,07,28,06,26,14.10
2015,07,28,06,27,14.20
2015,07,28,06,28,14.20
2015,07,28,06,29,14.20
2015,07,28,06,30,14.20
2015,07,28,06,31,14.20
2015,07,28,06,32,14.20
2015,07,28,06,33,14.20
2015,07,28,06,34,14.20
2015,07,28,06,35,14.20
2015,07,28,06,36,14.20
2015,07,28,06,37,14.20
2015,07,28,06,38,14.20
2015,07,28,06,39,14.20
2015,07,28,06,40,14.20
2015,07,28,06,41,14.20
2015,07,28,06,42,14.20
2015,07,28,06,43,14.20
2015,07,28,06,44,14.20
2015,07,28,06,45,14.20
2015,07,28,06,46,14.20
2015,07,28,06,47,14.20
2015,07,28,06,48,14.20
2015,07,28,06,49,14.20
2015,07,28,06,50,14.20
2015,07,28,06,51,14.20
2015,07,28,06,52,14.20
2015,07,28,06,53,14.20
2015,07,28,06,54,14.20
2015,07,28,06,55,14.20
2015,07,28,06,56,14.20
2015,07,28,06,57,14.20
2015,07,28,06,58,14.20
2015,07,28,06,59,14.20
2015,07,28,07,00,14.20
2015,07,28,07,01,14.20
2015,07,28,07,02,14.20
2015,07,28,07,03,14.20
2015,07,28,07,04,14.20
2015,07,28,07,05,14.30
2015,07,28,07,06,14.20
2015,07,28,07,07,14.30
2015,07,28,07,08,14.30
2015,07,28,07,09,14.30
2015,07,28,07,10,14.30
2015,07,28,07,11,14.30
2015,07,28,07,12,14.30
2015,07,28,07,13,14.30
2015,07,28,07,14,14.30
2015,07,28,07,15,14.30
2015,07,28,07,16,14.20
2015,07,28,07,17,14.20
2015,07,28,07,18,14.20
2015,07,28,07,19,14.20
2015,07,28,07,20,14.20
2015,07,28,07,21,14.20
2015,07,28,07,22,14.20
2015,07,28,07,23,14.20
2015,07,28,07,24,14.20
2015,07,28,07,25,14.20
2015,07,28,07,26,14.20
2015,07,28,07,27,14.20
2015,07,28,07,28,14.20
2015,07,28,07,29,14.20
2015,07,28,07,30,14.20
2015,07,28,07,31,14.20
2015,07,28,07,32,14.20
2015,07,28,07,33,14.20
2015,07,28,07,34,14.20
2015,07,28,07,35,14.20
2015,07,28,07,36,14.20
2015,07,28,07,37,14.30
2015,07,28,07,38,14.30
2015,07,28,07,39,14.30
2015,07,28,07,40,14.30
2015,07,28,07,41,14.30
2015,07,28,07,42,14.30
2015,07,28,07,43,14.40
2015,07,28,07,44,14.40
2015,07,28,07,45,14.40
2015,07,28,07,46,14.40
2015,07,28,07,47,14.50
2015,07,28,07,48,14.50
2015,07,28,07,49,14.60
2015,07,28,07,50,14.60
2015,07,28,07,51,14.70
2015,07,28,07,52,14.80
2015,07,28,07,53,14.80
2015,07,28,07,54,14.90
2015,07,28,07,55,14.90
2015,07,28,07,56,15.00
2015,07,28,07,57,15.10
2015,07,28,07,58,15.10
2015,07,28,07,59,15.20
2015,07,28,08,00,15.30
2015,07,28,08,01,15.40
2015,07,28,08,02,15.40
2015,07,28,08,03,15.40
2015,07,28,08,04,15.40
2015,07,28,08,05,15.40
2015,07,28,08,06,15.40
2015,07,28,08,07,15.40
2015,07,28,08,08,15.40
2015,07,28,08,09,15.40
2015,07,28,08,10,15.40
2015,07,28,08,11,15.40
2015,07,28,08,12,15.40
2015,07,28,08,13,15.50
2015,07,28,08,14,15.50
2015,07,28,08,15,15.60
2015,07,28,08,16,15.60
2015,07,28,08,17,15.60
2015,07,28,08,18,15.60
2015,07,28,08,19,15.60
2015,07,28,08,20,15.60
2015,07,28,08,21,15.60
2015,07,28,08,22,15.60
2015,07,28,08,23,15.70
2015,07,28,08,24,15.70
2015,07,28,08,25,15.70
2015,07,28,08,26,15.70
2015,07,28,08,27,15.70
2015,07,28,08,28,15.70
2015,07,28,08,29,15.80
2015,07,28,08,30,15.80
2015,07,28,08,31,15.80
2015,07,28,08,32,15.90
2015,07,28,08,33,15.90
2015,07,28,08,34,15.90
2015,07,28,08,35,15.90
2015,07,28,08,36,15.90
2015,07,28,08,37,15.90
2015,07,28,08,38,15.90
2015,07,28,08,39,15.90
2015,07,28,08,40,15.90
2015,07,28,08,41,16.00
2015,07,28,08,42,16.00
2015,07,28,08,43,16.00
2015,07,28,08,44,16.10
2015,07,28,08,45,16.10
2015,07,28,08,46,16.20
2015,07,28,08,47,16.20
2015,07,28,08,48,16.20
2015,07,28,08,49,16.20
2015,07,28,08,50,16.20
2015,07,28,08,51,16.20
2015,07,28,08,52,16.20
2015,07,28,08,53,16.20
2015,07,28,08,54,16.20
2015,07,28,08,55,16.20
2015,07,28,08,56,16.20
2015,07,28,08,57,16.30
2015,07,28,08,58,16.30
2015,07,28,08,59,16.30
2015,07,28,09,00,16.30
2015,07,28,09,01,16.30
2015,07,28,09,02,16.40
2015,07,28,09,03,16.50
2015,07,28,09,04,16.60
2015,07,28,09,05,16.70
2015,07,28,09,06,16.80
2015,07,28,09,07,17.00
2015,07,28,09,08,17.10
2015,07,28,09,09,17.20
2015,07,28,09,10,17.20
2015,07,28,09,11,17.30
2015,07,28,09,12,17.30
2015,07,28,09,13,17.40
2015,07,28,09,14,17.40
2015,07,28,09,15,17.40
2015,07,28,09,16,17.40
2015,07,28,09,17,17.40
2015,07,28,09,18,17.40
2015,07,28,09,19,17.40
2015,07,28,09,20,17.40
2015,07,28,09,21,17.40
2015,07,28,09,22,17.50
2015,07,28,09,23,17.50
2015,07,28,09,24,17.60
2015,07,28,09,25,17.70
2015,07,28,09,26,17.70
2015,07,28,09,27,17.80
2015,07,28,09,28,17.90
2015,07,28,09,29,18.00
2015,07,28,09,30,18.00
2015,07,28,09,31,18.10
2015,07,28,09,32,18.10
2015,07,28,09,33,18.10
2015,07,28,09,34,18.10
2015,07,28,09,35,18.10
2015,07,28,09,36,18.10
2015,07,28,09,37,18.10
2015,07,28,09,38,18.10
2015,07,28,09,39,18.20
2015,07,28,09,40,18.20
2015,07,28,09,41,18.30
2015,07,28,09,42,18.30
2015,07,28,09,43,18.40
2015,07,28,09,44,18.40
2015,07,28,09,45,18.50
2015,07,28,09,46,18.50
2015,07,28,09,47,18.60
2015,07,28,09,48,18.60
2015,07,28,09,49,18.60
2015,07,28,09,50,18.60
2015,07,28,09,51,18.50
2015,07,28,09,52,18.50
2015,07,28,09,53,18.50
2015,07,28,09,54,18.50
2015,07,28,09,55,18.50
2015,07,28,09,56,18.50
2015,07,28,09,57,18.40
2015,07,28,09,58,18.50
2015,07,28,09,59,18.50
2015,07,28,10,00,18.50
2015,07,28,10,01,18.50
2015,07,28,10,02,18.40
2015,07,28,10,03,18.40
2015,07,28,10,04,18.40
2015,07,28,10,05,18.40
2015,07,28,10,06,18.40
2015,07,28,10,07,18.40
2015,07,28,10,08,18.40
2015,07,28,10,09,18.50
2015,07,28,10,10,18.50
2015,07,28,10,11,18.50
2015,07,28,10,12,18.50
2015,07,28,10,13,18.50
2015,07,28,10,14,18.40
2015,07,28,10,15,18.40
2015,07,28,10,16,18.40
2015,07,28,10,17,18.40
2015,07,28,10,18,18.40
2015,07,28,10,19,18.40
2015,07,28,10,20,18.50
2015,07,28,10,21,18.60
2015,07,28,10,22,18.70
2015,07,28,10,23,18.80
2015,07,28,10,24,18.90
2015,07,28,10,25,19.00
2015,07,28,10,26,19.10
2015,07,28,10,27,19.10
2015,07,28,10,28,19.20
2015,07,28,10,29,19.30
2015,07,28,10,30,19.40
2015,07,28,10,31,19.40
2015,07,28,10,32,19.50
2015,07,28,10,33,19.60
2015,07,28,10,34,19.70
2015,07,28,10,35,19.70
2015,07,28,10,36,19.60
2015,07,28,10,37,19.60
2015,07,28,10,38,19.60
2015,07,28,10,39,19.60
2015,07,28,10,40,19.50
2015,07,28,10,41,19.50
2015,07,28,10,42,19.50
2015,07,28,10,43,19.60
2015,07,28,10,44,19.70
2015,07,28,10,45,19.70
2015,07,28,10,46,19.80
2015,07,28,10,47,19.80
2015,07,28,10,48,19.90
2015,07,28,10,49,19.90
2015,07,28,10,50,20.00
2015,07,28,10,51,20.10
2015,07,28,10,52,20.20
2015,07,28,10,53,20.30
2015,07,28,10,54,20.50
2015,07,28,10,55,20.60
2015,07,28,10,56,20.70
2015,07,28,10,57,20.70
2015,07,28,10,58,20.70
2015,07,28,10,59,20.80
2015,07,28,11,00,20.80
2015,07,28,11,01,20.70
2015,07,28,11,02,20.50
2015,07,28,11,03,20.50
2015,07,28,11,04,20.40
2015,07,28,11,05,20.40
2015,07,28,11,06,20.30
2015,07,28,11,07,20.30
2015,07,28,11,08,20.20
2015,07,28,11,09,20.20
2015,07,28,11,10,20.10
2015,07,28,11,11,20.00
2015,07,28,11,12,19.90
2015,07,28,11,13,19.90
2015,07,28,11,14,19.90
2015,07,28,11,15,19.90
2015,07,28,11,16,19.90
2015,07,28,11,17,19.90
2015,07,28,11,18,19.90
2015,07,28,11,19,19.90
2015,07,28,11,20,19.90
2015,07,28,11,21,19.90
2015,07,28,11,22,19.90
2015,07,28,11,23,20.00
2015,07,28,11,24,20.00
2015,07,28,11,25,20.00
2015,07,28,11,26,20.10
2015,07,28,11,27,20.20
2015,07,28,11,28,20.20
2015,07,28,11,29,20.20
2015,07,28,11,30,20.30
2015,07,28,11,31,20.30
2015,07,28,11,32,20.40
2015,07,28,11,33,20.40
2015,07,28,11,34,20.40
2015,07,28,11,35,20.30
2015,07,28,11,36,20.30
2015,07,28,11,37,20.30
2015,07,28,11,38,20.30
2015,07,28,11,39,20.30
2015,07,28,11,40,20.30
2015,07,28,11,41,20.40
2015,07,28,11,42,20.40
2015,07,28,11,43,20.50
2015,07,28,11,44,20.50
2015,07,28,11,45,20.50
2015,07,28,11,46,20.50
2015,07,28,11,47,20.50
2015,07,28,11,48,20.50
2015,07,28,11,49,20.40
2015,07,28,11,50,20.30
2015,07,28,11,51,20.30
2015,07,28,11,52,20.30
2015,07,28,11,53,20.40
2015,07,28,11,54,20.40
2015,07,28,11,55,20.40
2015,07,28,11,56,20.40
2015,07,28,11,57,20.40
2015,07,28,11,58,20.40
2015,07,28,11,59,20.40
2015,07,28,12,00,20.50
2015,07,28,12,01,20.60
2015,07,28,12,02,20.70
2015,07,28,12,03,20.80
2015,07,28,12,04,20.90
2015,07,28,12,05,21.00
2015,07,28,12,06,21.10
2015,07,28,12,07,21.20
2015,07,28,12,08,21.20
2015,07,28,12,09,21.30
2015,07,28,12,10,21.30
2015,07,28,12,11,21.40
2015,07,28,12,12,21.50
2015,07,28,12,13,21.50
2015,07,28,12,14,21.60
2015,07,28,12,15,21.70
2015,07,28,12,16,21.70
2015,07,28,12,17,21.70
2015,07,28,12,18,21.70
2015,07,28,12,19,21.80
2015,07,28,12,20,21.80
2015,07,28,12,21,21.80
2015,07,28,12,22,21.80
2015,07,28,12,23,21.70
2015,07,28,12,24,21.70
2015,07,28,12,25,21.70
2015,07,28,12,26,21.70
2015,07,28,12,27,21.70
2015,07,28,12,28,21.70
2015,07,28,12,29,21.70
2015,07,28,12,30,21.70
2015,07,28,12,31,21.70
2015,07,28,12,32,21.70
2015,07,28,12,33,21.80
2015,07,28,12,34,21.80
2015,07,28,12,35,21.80
2015,07,28,12,36,21.80
2015,07,28,12,37,21.80
2015,07,28,12,38,21.80
2015,07,28,12,39,21.80
2015,07,28,12,40,21.80
2015,07,28,12,41,21.80
2015,07,28,12,42,21.90
2015,07,28,12,43,21.90
2015,07,28,12,44,21.90
2015,07,28,12,45,22.00
2015,07,28,12,46,22.00
2015,07,28,12,47,22.00
2015,07,28,12,48,21.90
2015,07,28,12,49,21.90
2015,07,28,12,50,21.90
2015,07,28,12,51,22.00
2015,07,28,12,52,22.10
2015,07,28,12,53,22.20
2015,07,28,12,54,22.30
2015,07,28,12,55,22.40
2015,07,28,12,56,22.50
2015,07,28,12,57,22.60
2015,07,28,12,58,22.60
2015,07,28,12,59,22.60
2015,07,28,13,00,22.60
2015,07,28,13,01,22.60
2015,07,28,13,02,22.50
2015,07,28,13,03,22.40
2015,07,28,13,04,22.30
2015,07,28,13,05,22.30
2015,07,28,13,06,22.30
2015,07,28,13,07,22.40
2015,07,28,13,08,22.40
2015,07,28,13,09,22.40
2015,07,28,13,10,22.30
2015,07,28,13,11,22.20
2015,07,28,13,12,22.20
2015,07,28,13,13,22.10
2015,07,28,13,14,22.10
2015,07,28,13,15,22.10
2015,07,28,13,16,22.10
2015,07,28,13,17,22.10
2015,07,28,13,18,22.20
2015,07,28,13,19,22.20
2015,07,28,13,20,22.20
2015,07,28,13,21,22.10
2015,07,28,13,22,22.10
2015,07,28,13,23,22.10
2015,07,28,13,24,22.10
2015,07,28,13,25,22.20
2015,07,28,13,26,22.20
2015,07,28,13,27,22.20
2015,07,28,13,28,22.20
2015,07,28,13,29,22.20
2015,07,28,13,30,22.10
2015,07,28,13,31,22.00
2015,07,28,13,32,22.00
2015,07,28,13,33,22.00
2015,07,28,13,34,22.00
2015,07,28,13,35,22.10
2015,07,28,13,36,22.20
2015,07,28,13,37,22.20
2015,07,28,13,38,22.20
2015,07,28,13,39,22.20
2015,07,28,13,40,22.20
2015,07,28,13,41,22.10
2015,07,28,13,42,22.10
2015,07,28,13,43,22.10
2015,07,28,13,44,22.10
2015,07,28,13,45,22.20
2015,07,28,13,46,22.20
2015,07,28,13,47,22.30
2015,07,28,13,48,22.40
2015,07,28,13,49,22.50
2015,07,28,13,50,22.50
2015,07,28,13,51,22.50
2015,07,28,13,52,22.40
2015,07,28,13,53,22.40
2015,07,28,13,54,22.30
2015,07,28,13,55,22.30
2015,07,28,13,56,22.30
2015,07,28,13,57,22.40
2015,07,28,13,58,22.30
2015,07,28,13,59,22.30
2015,07,28,14,00,22.30
2015,07,28,14,01,22.30
2015,07,28,14,02,22.30
2015,07,28,14,03,22.30
2015,07,28,14,04,22.30
2015,07,28,14,05,22.30
2015,07,28,14,06,22.30
2015,07,28,14,07,22.30
2015,07,28,14,08,22.30
2015,07,28,14,09,22.40
2015,07,28,14,10,22.40
2015,07,28,14,11,22.50
2015,07,28,14,12,22.40
2015,07,28,14,13,22.50
2015,07,28,14,14,22.60
2015,07,28,14,15,22.60
2015,07,28,14,16,22.70
2015,07,28,14,17,22.60
2015,07,28,14,18,22.60
2015,07,28,14,19,22.50
2015,07,28,14,20,22.50
2015,07,28,14,21,22.40
2015,07,28,14,22,22.40
2015,07,28,14,23,22.40
2015,07,28,14,24,22.40
2015,07,28,14,25,22.50
2015,07,28,14,26,22.60
2015,07,28,14,27,22.70
2015,07,28,14,28,22.80
2015,07,28,14,29,22.90
2015,07,28,14,30,22.90
2015,07,28,14,31,22.90
2015,07,28,14,32,22.90
2015,07,28,14,33,22.90
2015,07,28,14,34,22.80
2015,07,28,14,35,22.80
2015,07,28,14,36,22.80
2015,07,28,14,37,22.80
2015,07,28,14,38,22.80
2015,07,28,14,39,22.80
2015,07,28,14,40,22.70
2015,07,28,14,41,22.70
2015,07,28,14,42,22.70
2015,07,28,14,43,22.60
2015,07,28,14,44,22.50
2015,07,28,14,45,22.50
2015,07,28,14,46,22.40
2015,07,28,14,47,22.40
2015,07,28,14,48,22.40
2015,07,28,14,49,22.40
2015,07,28,14,50,22.30
2015,07,28,14,51,22.30
2015,07,28,14,52,22.20
2015,07,28,14,53,22.30
2015,07,28,14,54,22.30
2015,07,28,14,55,22.30
2015,07,28,14,56,22.40
2015,07,28,14,57,22.50
2015,07,28,14,58,22.60
2015,07,28,14,59,22.70
2015,07,28,15,00,22.70
2015,07,28,15,01,22.60
2015,07,28,15,02,22.60
2015,07,28,15,03,22.60
2015,07,28,15,04,22.60
2015,07,28,15,05,22.60
2015,07,28,15,06,22.70
2015,07,28,15,07,22.70
2015,07,28,15,08,22.70
2015,07,28,15,09,22.70
2015,07,28,15,10,22.70
2015,07,28,15,11,22.60
2015,07,28,15,12,22.70
2015,07,28,15,13,22.80
2015,07,28,15,14,22.90
2015,07,28,15,15,22.90
2015,07,28,15,16,23.00
2015,07,28,15,17,23.00
2015,07,28,15,18,23.00
2015,07,28,15,19,23.00
2015,07,28,15,20,23.00
2015,07,28,15,21,22.90
2015,07,28,15,22,22.90
2015,07,28,15,23,22.90
2015,07,28,15,24,23.00
2015,07,28,15,25,23.00
2015,07,28,15,26,23.10
2015,07,28,15,27,23.20
2015,07,28,15,28,23.20
2015,07,28,15,29,23.20
2015,07,28,15,30,23.20
2015,07,28,15,31,23.20
2015,07,28,15,32,23.20
2015,07,28,15,33,23.30
2015,07,28,15,34,23.40
2015,07,28,15,35,23.40
2015,07,28,15,36,23.40
2015,07,28,15,37,23.40
2015,07,28,15,38,23.40
2015,07,28,15,39,23.40
2015,07,28,15,40,23.50
2015,07,28,15,41,23.50
2015,07,28,15,42,23.60
2015,07,28,15,43,23.60
2015,07,28,15,44,23.60
2015,07,28,15,45,23.60
2015,07,28,15,46,23.60
2015,07,28,15,47,23.60
2015,07,28,15,48,23.60
2015,07,28,15,49,23.60
2015,07,28,15,50,23.70
2015,07,28,15,51,23.80
2015,07,28,15,52,23.80
2015,07,28,15,53,23.80
2015,07,28,15,54,23.80
2015,07,28,15,55,23.80
2015,07,28,15,56,23.70
2015,07,28,15,57,23.60
2015,07,28,15,58,23.50
2015,07,28,15,59,23.50
2015,07,28,16,00,23.40
2015,07,28,16,01,23.50
2015,07,28,16,02,23.50
2015,07,28,16,03,23.60
2015,07,28,16,04,23.70
2015,07,28,16,05,23.70
2015,07,28,16,06,23.70
2015,07,28,16,07,23.70
2015,07,28,16,08,23.60
2015,07,28,16,09,23.60
2015,07,28,16,10,23.60
2015,07,28,16,11,23.70
2015,07,28,16,12,23.70
2015,07,28,16,13,23.70
2015,07,28,16,14,23.70
2015,07,28,16,15,23.70
2015,07,28,16,16,23.70
2015,07,28,16,17,23.80
2015,07,28,16,18,23.80
2015,07,28,16,19,23.90
2015,07,28,16,20,23.90
2015,07,28,16,21,24.00
2015,07,28,16,22,24.10
2015,07,28,16,23,24.20
2015,07,28,16,24,24.20
2015,07,28,16,25,24.30
2015,07,28,16,26,24.30
2015,07,28,16,27,24.30
2015,07,28,16,28,24.30
2015,07,28,16,29,24.30
2015,07,28,16,30,24.30
2015,07,28,16,31,24.30
2015,07,28,16,32,24.30
2015,07,28,16,33,24.40
2015,07,28,16,34,24.40
2015,07,28,16,35,24.50
2015,07,28,16,36,24.50
2015,07,28,16,37,24.60
2015,07,28,16,38,24.60
2015,07,28,16,39,24.70
2015,07,28,16,40,24.70
2015,07,28,16,41,24.70
2015,07,28,16,42,24.80
2015,07,28,16,43,24.80
2015,07,28,16,44,24.80
2015,07,28,16,45,24.80
2015,07,28,16,46,24.80
2015,07,28,16,47,24.80
2015,07,28,16,48,24.80
2015,07,28,16,49,24.90
2015,07,28,16,50,24.90
2015,07,28,16,51,24.90
2015,07,28,16,52,24.90
2015,07,28,16,53,24.90
2015,07,28,16,54,25.00
2015,07,28,16,55,25.00
2015,07,28,16,56,25.10
2015,07,28,16,57,25.10
2015,07,28,16,58,25.10
2015,07,28,16,59,25.10
2015,07,28,17,00,25.10
2015,07,28,17,01,25.10
2015,07,28,17,02,25.10
2015,07,28,17,03,25.10
2015,07,28,17,04,25.10
2015,07,28,17,05,25.10
2015,07,28,17,06,25.10
2015,07,28,17,07,25.10
2015,07,28,17,08,25.20
2015,07,28,17,09,25.20
2015,07,28,17,10,25.20
2015,07,28,17,11,25.20
2015,07,28,17,12,25.20
2015,07,28,17,13,25.30
2015,07,28,17,14,25.20
2015,07,28,17,15,25.30
2015,07,28,17,16,25.30
2015,07,28,17,17,25.30
2015,07,28,17,18,25.40
2015,07,28,17,19,25.40